Погода в Кало-Хорио

Греция     35°06′56″N   25°43′25″E
темп.,
°C
ветер,
м/с
пор.,
м/с
влажн.,
%
обл.,
%
осадки,
мм/ч
давл.,
гПа
погр.,
м
26 июля, пн
пн2600:00+24с610690 0.0 1011311
03:00+23ссз611710 0.0 1010303
06:00+23с814751 0.0 1011440
09:00+27с710560 0.0 1012444
12:00+30ссв79440 0.0 1012563
15:00+30ссв811480 0.0 1012687
18:00+28ссв67470 0.0 1013428
21:00+24с68640 0.0 1013189
27 июля, вт
вт2700:00+24с56600 0.0 1014135
03:00+25ссз45560 0.0 101397
06:00+25с67570 0.0 1012117
09:00+28с45440 0.0 1012172
12:00+30всв23430 0.0 1013431
15:00+31св68460 0.0 1012468
18:00+30ссв45460 0.0 1011289
21:00+27с45540 0.0 101252
28 июля, ср
ср2800:00+27сз44500 0.0 101139
03:00+27с44460 0.0 100932
06:00+26с56500 0.0 100973
09:00+29с57430 0.0 1009182
12:00+32св57410 0.0 1009440
15:00+31св35450 0.0 1009376
18:00+31св56430 0.0 1008261
21:00+28ссз33530 0.0 100933
29 июля, чт
чт2900:00+27ссз33510 0.0 100927
03:00+27сз22470 0.0 100723
06:00+27с55500 0.0 100655
09:00+30ссв68440 0.0 1007252
12:00+33ссв47360 0.0 1006489
15:00+32всв24430 0.0 1006524
18:00+32ссв57390 0.0 1006307
21:00+28ссз44480 0.0 100741
30 июля, пт
пт3000:00+28ссз45470 0.0 100644
03:00+28с67450 0.0 100567
06:00+27с79500 0.0 100594
09:00+30ссв78400 0.0 1006214
12:00+33ссв810310 0.0 1006466
15:00+34ссв912280 0.0 1005577
18:00+33с710290 0.0 1005424
21:00+29ссз55400 0.0 100641